Weather History for Monroe, WI

Change the Weather History Date:

Wednesday, January 16, 2013

  Actual Average Record
Temperature  
Mean Temperature 25 °F -  
Max Temperature 33 °F 0 °F 46 °F (2006)
Min Temperature 17 °F - -27 °F (2009)
Degree Days  
Heating Degree Days 40    
Moisture  
Dew Point 22 °F    
Average Humidity 81    
Maximum Humidity 100    
Minimum Humidity 60    
Precipitation  
Precipitation 0.00 in - - ()
Sea Level Pressure  
Sea Level Pressure 29.89 in    
Wind  
Wind Speed 15 mph (SW)    
Max Wind Speed 29 mph    
Max Gust Speed 36 mph    
Visibility 10 miles    
Events Snow    
Averages and records for this station are not official NWS values.
T = Trace of Precipitation, MM = Missing Value Source: NWS Daily Summary

Daily Weather History Graph

Daily Weather History Graph

Search for Another Location

Airport:

Trip Planner

Search our weather history database for the weather conditions in past years. The results will help you decide how hot, cold, wet, or windy it might be!

Date:

Astronomy

Jan. 16, 2013 Rise Set
Actual Time 7:25 AM CST 4:51 PM CST
Civil Twilight 6:53 AM CST 5:22 PM CST
Nautical Twilight 6:19 AM CST 5:57 PM CST
Astronomical Twilight 5:45 AM CST 6:31 PM CST
Moon 9:53 AM CST (1/16) 10:52 PM CST (1/16)
Length of Visible Light 10h 29m
Length of Day
9h 26m
Waxing Crescent, 28% of the Moon is Illuminated
Jan 16
Waxing Crescent
Jan 18
First Quarter
Jan 26
Full
Feb 3
Last Quarter
Feb 10
New

Hourly Weather History & Observations

Time (CST) Temp. Windchill Dew Point Humidity Pressure Visibility Wind Dir Wind Speed Gust Speed Precip Events Conditions
12:15 AM 17.6 °F 5.0 °F 12.2 °F 79% 30.04 in 10.0 mi SSW 11.5 mph - N/A   Clear
12:35 AM 17.6 °F 4.3 °F 10.4 °F 73% 30.03 in 10.0 mi SSW 12.7 mph - N/A   Clear
12:55 AM 17.6 °F 5.7 °F 10.4 °F 73% 30.02 in 10.0 mi SSW 10.4 mph - N/A   Clear
1:15 AM 17.6 °F 4.3 °F 10.4 °F 73% 30.01 in 10.0 mi SSW 12.7 mph - N/A   Clear
1:35 AM 17.6 °F 2.7 °F 10.4 °F 73% 30.00 in 10.0 mi SSW 16.1 mph - N/A   Clear
1:55 AM 17.6 °F 2.2 °F 10.4 °F 73% 30.00 in 10.0 mi SSW 17.3 mph - N/A   Clear
2:15 AM 17.6 °F 3.2 °F 10.4 °F 73% 29.99 in 10.0 mi SSW 15.0 mph - N/A   Clear
2:35 AM 17.6 °F 3.7 °F 10.4 °F 73% 29.99 in 10.0 mi SW 13.8 mph - N/A   Clear
2:55 AM 17.6 °F 3.7 °F 10.4 °F 73% 29.98 in 10.0 mi SW 13.8 mph - N/A   Clear
3:15 AM 17.6 °F 3.2 °F 8.6 °F 68% 29.97 in 10.0 mi SSW 15.0 mph - N/A   Clear
3:35 AM 17.6 °F 3.7 °F 8.6 °F 68% 29.96 in 10.0 mi SSW 13.8 mph - N/A   Clear
3:55 AM 17.6 °F 4.3 °F 8.6 °F 68% 29.95 in 10.0 mi SSW 12.7 mph - N/A   Clear
4:15 AM 17.6 °F 3.7 °F 8.6 °F 68% 29.94 in 10.0 mi SSW 13.8 mph - N/A   Clear
4:35 AM 17.6 °F 2.7 °F 8.6 °F 68% 29.92 in 10.0 mi SSW 16.1 mph - N/A   Clear
4:55 AM 17.6 °F 2.7 °F 8.6 °F 68% 29.91 in 10.0 mi SSW 16.1 mph - N/A   Clear
5:15 AM 17.6 °F 3.2 °F 8.6 °F 68% 29.91 in 10.0 mi SSW 15.0 mph - N/A   Clear
6:35 AM 17.6 °F 3.2 °F 8.6 °F 68% 29.86 in 10.0 mi SSW 15.0 mph - N/A   Clear
6:55 AM 17.6 °F 2.2 °F 10.4 °F 73% 29.86 in 10.0 mi SSW 17.3 mph - N/A   Clear
7:15 AM 17.6 °F 1.3 °F 10.4 °F 73% 29.87 in 10.0 mi SSW 19.6 mph 24.2 mph N/A   Clear
7:35 AM 17.6 °F 2.7 °F 10.4 °F 73% 29.85 in 10.0 mi SSW 16.1 mph 24.2 mph N/A   Clear
7:55 AM 19.4 °F 3.6 °F 10.4 °F 68% 29.85 in 10.0 mi SSW 19.6 mph - N/A   Clear
8:15 AM 21.2 °F 5.6 °F 12.2 °F 68% 29.85 in 10.0 mi SSW 20.7 mph 26.5 mph N/A   Scattered Clouds
8:35 AM 21.2 °F 6.0 °F 12.2 °F 68% 29.84 in 10.0 mi SSW 19.6 mph 25.3 mph N/A   Scattered Clouds
8:55 AM 21.2 °F 6.4 °F 12.2 °F 68% 29.84 in 10.0 mi SSW 18.4 mph 23.0 mph N/A   Mostly Cloudy
9:15 AM 23.0 °F 8.0 °F 14.0 °F 68% 29.83 in 10.0 mi SSW 20.7 mph 25.3 mph N/A   Overcast
9:35 AM 24.8 °F 9.6 °F 14.0 °F 64% 29.81 in 10.0 mi SW 23.0 mph 32.2 mph N/A   Mostly Cloudy
9:55 AM 26.6 °F 10.8 °F 15.8 °F 64% 29.80 in 10.0 mi SSW 27.6 mph 34.5 mph N/A   Overcast
10:15 AM 28.4 °F 13.0 °F 17.6 °F 64% 29.79 in 10.0 mi SW 28.8 mph 35.7 mph N/A   Mostly Cloudy
10:35 AM 30.2 °F 17.4 °F 17.6 °F 60% 29.78 in 10.0 mi SW 20.7 mph 28.8 mph N/A   Scattered Clouds
10:55 AM 30.2 °F 16.8 °F 17.6 °F 60% 29.79 in 10.0 mi SW 23.0 mph 29.9 mph N/A   Mostly Cloudy
11:15 AM 30.2 °F 17.4 °F 19.4 °F 64% 29.78 in 10.0 mi SW 20.7 mph 28.8 mph N/A   Overcast
11:35 AM 32.0 °F 20.5 °F 19.4 °F 60% 29.77 in 10.0 mi SW 18.4 mph 25.3 mph N/A   Overcast
11:55 AM 32.0 °F 20.8 °F 19.4 °F 60% 29.77 in 10.0 mi SW 17.3 mph - N/A   Overcast
12:15 PM 32.0 °F 19.5 °F 21.2 °F 64% 29.78 in 10.0 mi WSW 21.9 mph - N/A   Overcast
12:35 PM 32.0 °F 19.2 °F 21.2 °F 64% 29.78 in 10.0 mi WSW 23.0 mph 29.9 mph N/A   Overcast
12:55 PM 32.0 °F 20.5 °F 23.0 °F 69% 29.77 in 10.0 mi WSW 18.4 mph 25.3 mph N/A   Overcast
1:15 PM 32.0 °F 21.2 °F 23.0 °F 69% 29.77 in 10.0 mi WSW 16.1 mph 27.6 mph N/A   Overcast
1:35 PM 32.0 °F 19.2 °F 26.6 °F 80% 29.77 in 10.0 mi WSW 23.0 mph 27.6 mph N/A   Mostly Cloudy
1:55 PM 32.0 °F 20.8 °F 26.6 °F 80% 29.78 in 10.0 mi WSW 17.3 mph 24.2 mph N/A Snow Light Snow
2:15 PM 32.0 °F 20.8 °F 26.6 °F 80% 29.78 in 10.0 mi WSW 17.3 mph - N/A   Overcast
2:35 PM 32.0 °F 21.2 °F 30.2 °F 93% 29.79 in 10.0 mi WSW 16.1 mph 21.9 mph N/A   Overcast
2:55 PM 32.0 °F 21.6 °F 30.2 °F 93% 29.80 in 10.0 mi WSW 15.0 mph 24.2 mph N/A   Overcast
3:15 PM 32.0 °F 20.8 °F 30.2 °F 93% 29.81 in 10.0 mi WSW 17.3 mph - N/A   Overcast
3:35 PM 32.0 °F 20.8 °F 32.0 °F 100% 29.82 in 10.0 mi WSW 17.3 mph - N/A   Overcast
3:55 PM 32.0 °F 21.2 °F 32.0 °F 100% 29.83 in 10.0 mi WSW 16.1 mph - N/A   Overcast
4:15 PM 32.0 °F 22.1 °F 32.0 °F 100% 29.85 in 10.0 mi WSW 13.8 mph - N/A   Scattered Clouds
4:35 PM 32.0 °F 22.5 °F 32.0 °F 100% 29.86 in 10.0 mi WSW 12.7 mph - N/A   Mostly Cloudy
4:55 PM 32.0 °F 23.0 °F 32.0 °F 100% 29.86 in 10.0 mi SW 11.5 mph - N/A   Overcast
5:15 PM 32.0 °F 23.6 °F 32.0 °F 100% 29.88 in 10.0 mi SW 10.4 mph - N/A   Overcast
5:35 PM 32.0 °F 23.6 °F 32.0 °F 100% 29.88 in 10.0 mi SSW 10.4 mph - N/A   Overcast
5:55 PM 32.0 °F 23.0 °F 32.0 °F 100% 29.89 in 10.0 mi SSW 11.5 mph - N/A   Overcast
6:15 PM 32.0 °F 23.0 °F 32.0 °F 100% 29.90 in 10.0 mi SW 11.5 mph - N/A   Overcast
6:35 PM 33.8 °F 24.3 °F 32.0 °F 93% 29.91 in 7.0 mi SW 13.8 mph - N/A Snow Light Snow
6:55 PM 33.8 °F 23.9 °F 32.0 °F 93% 29.92 in 10.0 mi WSW 15.0 mph - N/A   Overcast
7:15 PM 33.8 °F 23.5 °F 32.0 °F 93% 29.93 in 10.0 mi WSW 16.1 mph - N/A   Overcast
7:35 PM 33.8 °F 23.5 °F 32.0 °F 93% 29.94 in 7.0 mi WSW 16.1 mph - N/A Snow Light Snow
7:55 PM 33.8 °F 23.9 °F 32.0 °F 93% 29.94 in 10.0 mi WSW 15.0 mph - N/A   Overcast
8:15 PM 33.8 °F 24.3 °F 32.0 °F 93% 29.95 in 10.0 mi WSW 13.8 mph - N/A   Overcast
8:35 PM 33.8 °F 25.3 °F 33.8 °F 100% 29.95 in 10.0 mi West 11.5 mph - N/A   Overcast
8:55 PM 33.8 °F 24.8 °F 33.8 °F 100% 29.97 in 10.0 mi West 12.7 mph - N/A   Overcast
9:15 PM 33.8 °F 25.3 °F 33.8 °F 100% 29.98 in 10.0 mi West 11.5 mph - N/A   Scattered Clouds
9:35 PM 33.8 °F 26.4 °F 33.8 °F 100% 29.98 in 10.0 mi WNW 9.2 mph - N/A   Mostly Cloudy
9:55 PM 33.8 °F 25.8 °F 33.8 °F 100% 29.98 in 10.0 mi WNW 10.4 mph - N/A   Overcast
10:15 PM 33.8 °F 24.8 °F 33.8 °F 100% 29.99 in 10.0 mi NW 12.7 mph 16.1 mph N/A   Overcast
10:35 PM 33.8 °F 25.3 °F 33.8 °F 100% 29.99 in 10.0 mi NW 11.5 mph - N/A   Overcast
10:55 PM 33.8 °F 27.7 °F 33.8 °F 100% 30.00 in 10.0 mi NNW 6.9 mph - N/A   Overcast
11:15 PM 33.8 °F 26.4 °F 32.0 °F 93% 30.02 in 10.0 mi NNW 9.2 mph 16.1 mph N/A   Overcast
11:35 PM 33.8 °F 24.8 °F 32.0 °F 93% 30.03 in 10.0 mi North 12.7 mph 17.3 mph N/A   Overcast
11:55 PM 32.0 °F 23.0 °F 24.8 °F 75% 30.04 in 10.0 mi NNW 11.5 mph - N/A   Mostly Cloudy